This demonstration page uses our WeatherBlox Daily Observations layout. Learn more.

Hourly Observations for August 4, 2018

Temp ( °F °C ) Dew Point ( °F °C ) Humidity (%) Winds ( mph kmh ) Pressure ( in mb ) Visibility ( mi km ) Precip ( " mm )
12:15 am 00:15 Mostly Cloudy with Rain 68 20.1 68 19.8 98 98 Calm 29.85 1011 10 16.09344 0.02 0.508
12:35 am 00:35 Mostly Cloudy with Light Rain 69 20.4 68 20 98 98 SSE 6 9 29.85 1011 10 16.09344 0.03 0.762
12:55 am 00:55 Mostly Cloudy with Light Drizzle 68 19.8 67 19.6 99 99 SSE 8 13 29.85 1011 10 16.09344 0.03 0.762
1:15 am 01:15 Partly Cloudy with Light Rain 68 20.1 68 20 99 99 SSE 9 15 29.85 1011 10 16.09344 0 0
1:35 am 01:35 Mostly Cloudy with Light Rain 68 20.2 68 20.1 99 99 SSE 9 15 29.83 1010 10 16.09344 0.02 0.508
1:55 am 01:55 Partly Cloudy 69 20.3 68 20 98 98 SSE 9 15 29.8 1009 10 16.09344 0.03 0.762
2:15 am 02:15 Partly Cloudy with Light Rain 69 20.6 67 19.5 93 93 SW 10 17 29.8 1009 10 16.09344 0.01 0.254
2:35 am 02:35 Clear 69 20.7 66 19 90 90 SSW 15 24 29.8 1009 10 16.09344 0.01 0.254
2:55 am 02:55 Clear 69 20.5 66 19 91 91 SW 10 17 29.77 1008 10 16.09344 0.01 0.254
3:15 am 03:15 Clear 68 20.1 67 19.2 95 95 SW 9 15 29.8 1009 10 16.09344 0 0
3:35 am 03:35 Clear 69 20.3 66 19.1 93 93 SW 8 13 29.8 1009 10 16.09344 0 0
3:55 am 03:55 Clear 68 20.2 66 19 93 93 SSW 7 11 29.8 1009 10 16.09344 0 0
4:15 am 04:15 Clear 68 20.1 66 19 93 93 SSW 8 13 29.8 1009 10 16.09344 0 0
4:35 am 04:35 Clear 68 20 66 18.8 93 93 S 9 15 29.8 1009 10 16.09344 0 0
4:55 am 04:55 Clear 68 20 66 18.9 93 93 S 8 13 29.8 1009 10 16.09344 0 0
5:15 am 05:15 Clear 67 19.5 66 18.8 96 96 S 7 11 29.8 1009 10 16.09344 0 0
5:35 am 05:35 Clear 67 19.5 66 19 97 97 S 9 15 29.8 1009 10 16.09344 0 0
5:55 am 05:55 Clear 67 19.5 66 19 97 97 S 9 15 29.8 1009 10 16.09344 0 0
6:15 am 06:15 Clear 67 19.5 66 19 97 97 S 10 17 29.8 1009 10 16.09344 0 0
6:35 am 06:35 Clear 67 19.5 66 19 97 97 S 9 15 29.8 1009 10 16.09344 0 0
6:55 am 06:55 Sunny 67 19.7 67 19.2 97 97 S 9 15 29.83 1010 10 16.09344 0 0
7:15 am 07:15 Sunny 67 19.6 67 19.4 99 99 S 9 15 29.8 1009 10 16.09344 0 0
7:35 am 07:35 Sunny 68 19.8 67 19.5 98 98 S 8 13 29.83 1010 10 16.09344 0 0
7:55 am 07:55 Sunny 68 20.1 67 19.6 97 97 S 10 17 29.8 1009 10 16.09344 0 0
8:15 am 08:15 Sunny 68 20 67 19.7 98 98 S 7 11 29.8 1009 10 16.09344 0 0
8:35 am 08:35 Sunny 68 20 67 19.7 98 98 S 7 11 29.83 1010 10 16.09344 0 0
8:55 am 08:55 Sunny 69 20.7 68 20.2 97 97 S 8 13 29.83 1010 10 16.09344 0 0
9:15 am 09:15 Sunny 71 21.7 68 19.9 90 90 S 14 22 29.83 1010 10 16.09344 0 0
9:35 am 09:35 Sunny 72 22.3 67 19.4 84 84 S 9 15 29.8 1009 10 16.09344 0 0
9:55 am 09:55 Sunny 73 23 67 19.2 79 79 S 15 24 29.8 1009 10 16.09344 0 0
10:15 am 10:15 Sunny 74 23.6 66 19 75 75 S 12 19 29.8 1009 10 16.09344 0 0
10:35 am 10:35 Sunny 75 24.1 67 19.2 74 74 S 13 20 29.77 1008 10 16.09344 0 0
10:55 am 10:55 Sunny 76 24.5 67 19.2 72 72 S 14 22 29.8 1009 10 16.09344 0 0
11:15 am 11:15 Sunny 77 24.9 67 19.7 73 73 S 12 19 29.77 1008 10 16.09344 0 0
11:35 am 11:35 Sunny 78 25.5 68 19.8 71 71 S 13 20 29.77 1008 10 16.09344 0 0
11:55 am 11:55 Sunny 79 26 68 19.9 69 69 SSW 13 20 29.77 1008 10 16.09344 0 0
12:15 pm 12:15 Sunny 79 26.3 69 20.4 70 70 SSW 9 15 29.74 1007 10 16.09344 0 0
12:35 pm 12:35 Sunny 80 26.6 69 20.7 70 70 SSW 12 19 29.74 1007 10 16.09344 0 0
12:55 pm 12:55 Sunny 81 27 70 21 70 70 SSW 8 13 29.77 1008 10 16.09344 0 0
1:15 pm 13:15 Sunny 81 27.3 70 21 69 69 S 8 13 29.74 1007 10 16.09344 0 0
1:35 pm 13:35 Sunny 82 27.5 70 21.2 69 69 S 12 19 29.74 1007 10 16.09344 0 0
1:55 pm 13:55 Sunny 81 27.3 70 21.1 69 69 S 10 17 29.74 1007 10 16.09344 0 0
2:15 pm 14:15 Sunny 82 27.8 70 21 67 67 S 9 15 29.74 1007 10 16.09344 0 0
2:35 pm 14:35 Sunny 83 28.5 71 21.6 66 66 S 9 15 29.74 1007 10 16.09344 0 0
2:55 pm 14:55 Sunny 83 28.3 70 20.9 64 64 S 8 13 29.74 1007 10 16.09344 0 0
3:15 pm 15:15 Sunny 84 28.7 71 21.4 65 65 S 10 17 29.74 1007 10 16.09344 0 0
3:35 pm 15:35 Sunny 84 29 71 21.5 64 64 SSE 9 15 29.74 1007 10 16.09344 0 0
3:55 pm 15:55 Sunny 85 29.5 70 21.3 61 61 SSE 9 15 29.71 1006 10 16.09344 0 0
4:15 pm 16:15 Sunny 85 29.6 71 21.4 61 61 S 10 17 29.71 1006 10 16.09344 0 0
4:35 pm 16:35 Sunny 85 29.7 70 21.3 61 61 S 9 15 29.71 1006 10 16.09344 0 0
4:55 pm 16:55 Sunny 86 30 71 21.6 61 61 SSE 9 15 29.71 1006 10 16.09344 0 0
5:15 pm 17:15 Sunny 86 29.9 71 21.8 62 62 SSE 9 15 29.71 1006 10 16.09344 0 0
5:35 pm 17:35 Sunny 86 30.1 71 21.8 61 61 SSE 8 13 29.71 1006 10 16.09344 0 0
5:55 pm 17:55 Sunny 86 30.1 71 21.9 62 62 SSE 7 11 29.71 1006 10 16.09344 0 0
6:15 pm 18:15 Sunny 86 29.9 73 22.5 65 65 SSE 7 11 29.71 1006 10 16.09344 0 0
6:35 pm 18:35 Sunny 86 30 72 22.4 64 64 S 7 11 29.71 1006 10 16.09344 0 0
6:55 pm 18:55 Sunny 85 29.6 72 22 64 64 S 9 15 29.71 1006 10 16.09344 0 0
7:15 pm 19:15 Sunny 84 28.7 73 22.6 70 70 S 6 9 29.74 1007 10 16.09344 0 0
7:35 pm 19:35 Sunny 81 27.1 73 23 78 78 SSE 3 6 29.74 1007 10 16.09344 0 0
7:55 pm 19:55 Sunny 80 26.6 73 22.8 80 80 SSE 3 6 29.74 1007 10 16.09344 0 0
8:15 pm 20:15 Sunny 80 26.5 72 22.4 78 78 Calm 29.74 1007 10 16.09344 0 0
8:35 pm 20:35 Sunny 79 26.2 71 21.6 76 76 S 3 6 29.74 1007 10 16.09344 0 0
8:55 pm 20:55 Clear 78 25.7 72 22 80 80 Calm 29.74 1007 10 16.09344 0 0
9:15 pm 21:15 Clear 76 24.7 71 21.5 82 82 SE 5 7 29.77 1008 10 16.09344 0 0
9:35 pm 21:35 Clear 75 23.9 71 21.5 86 86 SSE 6 9 29.77 1008 10 16.09344 0 0
9:55 pm 21:55 Clear 75 23.8 70 21.3 86 86 SSE 8 13 29.77 1008 10 16.09344 0 0
10:15 pm 22:15 Clear 75 23.7 70 21 85 85 SSE 7 11 29.8 1009 10 16.09344 0 0
10:35 pm 22:35 Clear 75 23.7 69 20.7 83 83 SSE 6 9 29.8 1009 10 16.09344 0 0
10:55 pm 22:55 Clear 75 24 69 20.7 82 82 S 6 9 29.83 1010 10 16.09344 0 0
11:15 pm 23:15 Clear 76 24.3 69 20.5 79 79 S 6 9 29.83 1010 10 16.09344 0 0
11:35 pm 23:35 Clear 74 23.5 69 20.6 84 84 S 7 11 29.83 1010 10 16.09344 0 0
11:55 pm 23:55 Clear 74 23.3 69 20.6 85 85 S 10 17 29.8 1009 10 16.09344 0 0

Powered by AerisWeather